OE6JVE-13 Weather Reports


Display with metric or nautical units.
time (UTC)temp
F
wind
direction
speed
MPH
gust
MPH
rain 1hr
in
rain 24hr
in
rain mn
in
humidity
%
barometer
mb
20260506154547 66 215 3.0 7.0 0.00 0.00 0.00 59 1001.9
20260506153555 66 231 3.0 8.0 0.00 0.00 0.00 58 1001.9
20260506152602 66 211 5.0 12.0 0.00 0.00 0.00 58 1001.9
20260506151610 66 189 8.0 12.0 0.00 0.00 0.00 57 1001.9
20260506150618 66 129 6.0 9.0 0.00 0.00 0.00 56 1001.9
20260506145520 66 169 3.0 9.0 0.00 0.00 0.00 55 1002.0
20260506144529 67 222 6.0 9.0 0.00 0.00 0.00 54 1002.0
20260506143536 68 171 5.0 12.0 0.00 0.00 0.00 53 1002.0
20260506142544 70 206 8.0 12.0 0.00 0.00 0.00 51 1002.0
20260506141552 69 231 6.0 11.0 0.00 0.00 0.00 53 1001.9
20260506140600 68 180 6.0 10.0 0.00 0.00 0.00 53 1002.0
20260506135607 69 203 6.0 12.0 0.00 0.00 0.00 52 1002.0
20260506134615 69 191 6.0 12.0 0.00 0.00 0.00 52 1002.1
20260506133518 69 207 7.0 15.0 0.00 0.00 0.00 52 1002.0
20260506132525 70 187 6.0 9.0 0.00 0.00 0.00 51 1001.9
20260506131534 71 178 7.0 12.0 0.00 0.00 0.00 50 1002.0
20260506130541 71 200 7.0 12.0 0.00 0.00 0.00 50 1002.0
20260506125549 70 203 5.0 17.0 0.00 0.00 0.00 50 1002.1
20260506124557 70 186 6.0 12.0 0.00 0.00 0.00 48 1002.2
20260506123605 71 189 8.0 15.0 0.00 0.00 0.00 47 1002.1
20260506122613 69 204 2.0 6.0 0.00 0.00 0.00 51 1002.2
20260506121620 68 207 7.0 14.0 0.00 0.00 0.00 51 1002.3
20260506120522 68 180 7.0 9.0 0.00 0.00 0.00 51 1002.3
20260506115530 69 185 6.0 10.0 0.00 0.00 0.00 51 1002.2
20260506114538 68 224 5.0 8.0 0.00 0.00 0.00 51 1002.3
20260506113546 69 179 5.0 10.0 0.00 0.00 0.00 50 1002.5
20260506112554 71 203 7.0 11.0 0.00 0.00 0.00 48 1002.6
20260506111602 69 294 2.0 5.0 0.00 0.00 0.00 51 1002.6
20260506110610 69 180 6.0 9.0 0.00 0.00 0.00 51 1002.8
20260506105618 69 180 6.0 10.0 0.00 0.00 0.00 50 1002.9
20260506104520 69 201 3.0 6.0 0.00 0.00 0.00 51 1003.0
20260506103528 68 183 4.0 9.0 0.00 0.00 0.00 51 1003.2
20260506102536 68 193 3.0 6.0 0.00 0.00 0.00 52 1003.3
20260506101543 67 243 2.0 9.0 0.00 0.00 0.00 52 1003.5
20260506100552 67 180 6.0 8.0 0.00 0.00 0.00 53 1003.4
20260506095600 67 204 5.0 10.0 0.00 0.00 0.00 52 1003.4
20260506094608 67 196 6.0 9.0 0.00 0.00 0.00 52 1003.4
20260506093615 67 166 6.0 10.0 0.00 0.00 0.00 51 1003.3
20260506092517 68 180 10.0 15.0 0.00 0.00 0.00 51 1003.2
20260506091525 69 165 9.0 17.0 0.00 0.00 0.00 49 1003.1
20260506090533 70 168 5.0 8.0 0.00 0.00 0.00 48 1002.9
20260506085541 68 191 7.0 15.0 0.00 0.00 0.00 48 1003.1
20260506084549 70 185 11.0 18.0 0.00 0.00 0.00 46 1003.0
20260506083556 69 166 6.0 10.0 0.00 0.00 0.00 45 1002.8
20260506082604 70 204 4.0 11.0 0.00 0.00 0.00 42 1003.0
20260506081613 70 188 5.0 12.0 0.00 0.00 0.00 42 1002.9
20260506080620 69 202 12.0 16.0 0.00 0.00 0.00 44 1003.0
20260506072552 65 180 2.0 5.0 0.00 0.00 0.00 59 1002.9
20260506071553 65 195 3.0 6.0 0.00 0.00 0.00 60 1002.9
20260506070602 64 187 2.0 3.0 0.00 0.00 0.00 60 1002.9
20260506061535 59 180 2.0 4.0 0.00 0.00 0.00 75 1003.4
20260506060543 56 180 1.0 3.0 0.00 0.00 0.00 92 1003.4
20260506050525 48 0.0 0.0 0.00 0.00 0.00 93 1003.3
20260506044540 47 0.0 0.0 0.00 0.00 0.00 93 1003.1
20260506043548 47 0.0 0.0 0.00 0.00 0.00 92 1003.0
20260506042556 47 0.0 0.0 0.00 0.00 0.00 92 1003.0
20260506041604 47 0.0 0.0 0.00 0.00 0.00 92 1002.9
20260506040612 47 0.0 0.0 0.00 0.00 0.00 92 1003.0
20260506035620 47 180 0.0 2.0 0.00 0.00 0.00 91 1002.9
20260506034522 46 180 0.0 2.0 0.00 0.00 0.00 91 1002.9
20260506033530 46 0.0 0.0 0.00 0.00 0.00 90 1002.9
20260506032538 47 0.0 0.0 0.00 0.00 0.00 90 1003.0
20260506031546 47 0.0 0.0 0.00 0.00 0.00 90 1002.9
20260506030554 47 0.0 0.0 0.00 0.00 0.00 90 1002.9
20260506025601 47 0.0 0.0 0.00 0.00 0.00 90 1002.9
20260506024609 47 292 0.0 1.0 0.00 0.00 0.00 89 1002.8
20260506023617 47 0.0 0.0 0.00 0.00 0.00 89 1002.8
20260506022520 47 0.0 0.0 0.00 0.00 0.00 89 1002.8
20260506021527 48 0.0 0.0 0.00 0.00 0.00 88 1002.6
20260506020535 48 0.0 0.0 0.00 0.00 0.00 88 1002.6
20260506015543 48 180 0.0 1.0 0.00 0.00 0.00 87 1002.6
20260506014551 48 315 0.0 2.0 0.00 0.00 0.00 87 1002.4
20260506013559 49 0.0 0.0 0.00 0.00 0.00 86 1002.3
20260506012607 49 90 0.0 1.0 0.00 0.00 0.00 86 1002.4
20260506011615 49 0.0 0.0 0.00 0.00 0.00 86 1002.3
20260506010517 50 0.0 0.0 0.00 0.00 0.00 86 1002.2
20260506005525 50 180 0.0 1.0 0.00 0.00 0.00 86 1002.2
20260506004533 50 0.0 0.0 0.00 0.00 0.00 86 1002.3
20260506003545 50 241 0.0 3.0 0.00 0.00 0.00 85 1002.2
20260506002548 50 326 1.0 3.0 0.00 0.00 0.00 84 1002.2
20260506001557 50 270 0.0 1.0 0.00 0.00 0.00 83 1002.2
20260506000605 51 0.0 0.0 0.00 0.00 0.00 83 1002.4
20260505235612 51 0.0 0.0 0.00 0.00 0.00 83 1002.2
20260505234621 51 270 0.0 1.0 0.00 0.00 0.00 82 1002.4
20260505233522 51 247 0.0 1.0 0.00 0.00 0.00 81 1002.4
20260505232530 52 0.0 0.0 0.00 0.00 0.00 81 1002.4
20260505231538 52 300 0.0 1.0 0.00 0.00 0.00 81 1002.5
20260505230546 53 298 0.0 2.0 0.00 0.00 0.00 81 1002.5
20260505225554 53 193 0.0 2.0 0.00 0.00 0.00 80 1002.4
20260505224601 53 206 0.0 1.0 0.00 0.00 0.00 80 1002.4
20260505223609 53 0.0 1.0 0.00 0.00 0.00 80 1002.3
20260505222617 53 211 0.0 1.0 0.00 0.00 0.00 80 1002.4
20260505221520 53 245 0.0 2.0 0.00 0.00 0.00 78 1002.4
20260505220527 54 225 1.0 2.0 0.00 0.00 0.00 73 1002.5
20260505215536 55 0.0 0.0 0.00 0.00 0.00 73 1002.5
20260505214543 55 265 0.0 1.0 0.00 0.00 0.00 73 1002.4
20260505213551 55 242 0.0 2.0 0.00 0.00 0.00 72 1002.3
20260505212559 56 247 0.0 2.0 0.00 0.00 0.00 71 1002.4
20260505211607 57 0.0 0.0 0.00 0.00 0.00 70 1002.5
20260505210615 57 249 3.0 6.0 0.00 0.00 0.00 70 1002.6
20260505205517 58 225 0.0 0.0 0.00 0.00 0.00 67 1002.7
20260505204525 59 291 1.0 3.0 0.00 0.00 0.00 66 1002.5
20260505203533 60 180 3.0 8.0 0.00 0.00 0.00 65 1002.7
20260505202540 60 205 5.0 14.0 0.00 0.00 0.00 65 1002.6
20260505201548 59 245 6.0 9.0 0.00 0.00 0.00 66 1002.6
20260505200557 59 270 6.0 8.0 0.00 0.00 0.00 66 1002.7
20260505195604 59 296 1.0 4.0 0.00 0.00 0.00 66 1002.6
20260505194612 60 254 1.0 5.0 0.00 0.00 0.00 64 1002.7
20260505193620 60 232 2.0 6.0 0.00 0.00 0.00 63 1002.7
20260505192522 61 176 3.0 6.0 0.00 0.00 0.00 63 1002.9
20260505191530 61 219 2.0 3.0 0.00 0.00 0.00 62 1002.9
20260505190538 61 209 1.0 6.0 0.00 0.00 0.00 62 1002.8
20260505185545 61 180 1.0 3.0 0.00 0.00 0.00 61 1002.8
20260505184555 62 201 7.0 12.0 0.00 0.00 0.00 61 1002.8
20260505183602 61 193 6.0 11.0 0.00 0.00 0.00 62 1002.9
20260505182609 61 237 3.0 5.0 0.00 0.00 0.00 61 1002.9
20260505181618 62 159 6.0 9.0 0.00 0.00 0.00 60 1003.0
20260505180520 62 180 5.0 6.0 0.00 0.00 0.00 60 1003.0
20260505175528 62 201 5.0 9.0 0.00 0.00 0.00 60 1002.8
20260505174535 62 227 7.0 12.0 0.00 0.00 0.00 59 1002.9
20260505173544 63 180 7.0 12.0 0.00 0.00 0.00 57 1002.9
20260505172551 63 180 6.0 11.0 0.00 0.00 0.00 53 1003.0
20260505171559 64 189 7.0 15.0 0.00 0.00 0.00 52 1002.9
20260505170607 64 177 7.0 13.0 0.00 0.00 0.00 52 1003.1
20260505165615 64 215 9.0 12.0 0.00 0.00 0.00 51 1003.0
20260505164517 65 198 7.0 12.0 0.00 0.00 0.00 51 1003.2
20260505163525 65 177 8.0 18.0 0.00 0.00 0.00 51 1003.2
20260505162533 66 186 4.0 8.0 0.00 0.00 0.00 50 1003.3
20260505161541 66 229 6.0 10.0 0.00 0.00 0.00 49 1003.3
20260505160549 67 180 4.0 5.0 0.00 0.00 0.00 46 1003.4